Time,TemperatureF,DewpointF,PressureIn,WindDirection,WindDirectionDegrees,WindSpeedMPH,WindSpeedGustMPH,Humidity,HourlyPrecipIn,Conditions,Clouds,dailyrainin,SolarRadiationWatts/m^2,SoftwareType,DateUTC
2013-04-20 00:12:00,41.5,33.0,31.50,North,5,0.0,4.0,73,0.00,,,0.00,0,weatherlink.com 1.10,2013-04-20 06:12:00,
2013-04-20 00:27:00,41.3,34.0,31.50,NNE,24,2.0,5.0,74,0.00,,,0.00,0,weatherlink.com 1.10,2013-04-20 06:27:00,
2013-04-20 00:42:00,41.3,34.0,31.49,ENE,73,0.0,5.0,74,0.00,,,0.00,0,weatherlink.com 1.10,2013-04-20 06:42:00,
2013-04-20 00:57:00,41.1,33.0,31.50,NNW,331,1.0,5.0,74,0.00,,,0.00,0,weatherlink.com 1.10,2013-04-20 06:57:00,
2013-04-20 01:12:00,42.6,33.0,31.50,ESE,117,1.0,10.0,70,0.00,,,0.00,0,weatherlink.com 1.10,2013-04-20 07:12:00,
2013-04-20 01:27:00,41.7,33.0,31.50,SW,232,2.0,3.0,72,0.00,,,0.00,0,weatherlink.com 1.10,2013-04-20 07:27:00,
2013-04-20 01:42:00,41.6,34.0,31.50,SW,221,0.0,3.0,73,0.00,,,0.00,0,weatherlink.com 1.10,2013-04-20 07:42:00,
2013-04-20 01:57:00,41.8,33.0,31.50,SE,133,8.0,14.0,71,0.00,,,0.00,0,weatherlink.com 1.10,2013-04-20 07:57:00,
2013-04-20 02:12:00,41.8,33.0,31.50,SE,136,10.0,13.0,70,0.00,,,0.00,0,weatherlink.com 1.10,2013-04-20 08:12:00,
2013-04-20 02:28:00,41.9,33.0,31.50,SSE,147,7.0,9.0,70,0.00,,,0.00,0,weatherlink.com 1.10,2013-04-20 08:28:00,
2013-04-20 02:43:00,41.6,33.0,31.50,ESE,111,4.0,10.0,71,0.00,,,0.00,0,weatherlink.com 1.10,2013-04-20 08:43:00,
2013-04-20 02:58:00,41.8,33.0,31.50,South,179,7.0,13.0,71,0.00,,,0.00,0,weatherlink.com 1.10,2013-04-20 08:58:00,
2013-04-20 03:13:00,41.9,32.0,31.50,SSE,160,10.0,12.0,69,0.00,,,0.00,0,weatherlink.com 1.10,2013-04-20 09:13:00,
2013-04-20 03:28:00,41.8,33.0,31.50,South,175,6.0,7.0,71,0.00,,,0.00,0,weatherlink.com 1.10,2013-04-20 09:28:00,
2013-04-20 03:43:00,41.4,33.0,31.50,SSE,153,6.0,9.0,71,0.00,,,0.00,0,weatherlink.com 1.10,2013-04-20 09:43:00,
2013-04-20 03:58:00,41.9,33.0,31.50,SE,143,1.0,9.0,70,0.00,,,0.00,0,weatherlink.com 1.10,2013-04-20 09:58:00,
2013-04-20 04:13:00,42.2,33.0,31.50,WSW,242,10.0,12.0,69,0.00,,,0.00,0,weatherlink.com 1.10,2013-04-20 10:13:00,
2013-04-20 04:28:00,42.0,33.0,31.50,NNW,344,4.0,16.0,70,0.00,,,0.00,0,weatherlink.com 1.10,2013-04-20 10:28:00,
2013-04-20 04:43:00,41.3,33.0,31.52,WNW,302,5.0,9.0,71,0.00,,,0.00,0,weatherlink.com 1.10,2013-04-20 10:43:00,
2013-04-20 04:58:00,40.6,33.0,31.51,NW,317,4.0,9.0,73,0.00,,,0.00,0,weatherlink.com 1.10,2013-04-20 10:58:00,
2013-04-20 05:13:00,40.3,33.0,31.51,NNW,343,1.0,8.0,74,0.00,,,0.00,0,weatherlink.com 1.10,2013-04-20 11:13:00,
2013-04-20 05:28:00,40.1,32.0,31.52,WNW,301,8.0,13.0,74,0.00,,,0.00,0,weatherlink.com 1.10,2013-04-20 11:28:00,
2013-04-20 05:43:00,39.1,32.0,31.52,WNW,300,4.0,9.0,77,0.00,,,0.00,0,weatherlink.com 1.10,2013-04-20 11:43:00,
2013-04-20 05:58:00,38.2,32.0,31.52,North,5,0.0,4.0,79,0.00,,,0.00,0,weatherlink.com 1.10,2013-04-20 11:58:00,
2013-04-20 06:13:00,39.1,32.0,31.52,NW,319,2.0,8.0,77,0.00,,,0.00,0,weatherlink.com 1.10,2013-04-20 12:13:00,
2013-04-20 06:28:00,39.1,32.0,31.52,NNE,24,3.0,7.0,76,0.00,,,0.00,0,weatherlink.com 1.10,2013-04-20 12:28:00,
2013-04-20 06:43:00,38.9,32.0,31.52,North,355,4.0,9.0,76,0.00,,,0.00,0,weatherlink.com 1.10,2013-04-20 12:43:00,
2013-04-20 06:58:00,39.1,32.0,31.52,North,355,2.0,8.0,77,0.00,,,0.00,12,weatherlink.com 1.10,2013-04-20 12:58:00,
2013-04-20 07:13:00,38.9,32.0,31.53,ENE,59,0.0,4.0,76,0.00,,,0.00,19,weatherlink.com 1.10,2013-04-20 13:13:00,
2013-04-20 07:28:00,39.5,32.0,31.53,ENE,77,2.0,2.0,74,0.00,,,0.00,26,weatherlink.com 1.10,2013-04-20 13:28:00,
2013-04-20 07:43:00,40.3,31.0,31.53,ENE,63,2.0,7.0,69,0.00,,,0.00,49,weatherlink.com 1.10,2013-04-20 13:43:00,
2013-04-20 07:58:00,40.7,32.0,31.54,North,5,0.0,3.0,71,0.00,,,0.00,69,weatherlink.com 1.10,2013-04-20 13:58:00,
2013-04-20 08:13:00,40.7,31.0,31.54,SSE,161,0.0,3.0,69,0.00,,,0.00,84,weatherlink.com 1.10,2013-04-20 14:13:00,
2013-04-20 08:28:00,41.0,32.0,31.54,ESE,121,9.0,12.0,69,0.00,,,0.00,139,weatherlink.com 1.10,2013-04-20 14:28:00,
2013-04-20 08:43:00,41.7,31.0,31.55,East,82,2.0,7.0,66,0.00,,,0.00,139,weatherlink.com 1.10,2013-04-20 14:43:00,
2013-04-20 08:58:00,41.8,31.0,31.55,South,185,3.0,10.0,66,0.00,,,0.00,114,weatherlink.com 1.10,2013-04-20 14:58:00,
2013-04-20 09:13:00,42.4,30.0,31.55,SE,126,3.0,5.0,63,0.00,,,0.00,137,weatherlink.com 1.10,2013-04-20 15:13:00,
2013-04-20 09:28:00,42.4,31.0,31.55,NNW,346,3.0,14.0,64,0.00,,,0.00,156,weatherlink.com 1.10,2013-04-20 15:28:00,
2013-04-20 09:43:00,43.2,31.0,31.55,NNW,342,3.0,15.0,63,0.00,,,0.00,216,weatherlink.com 1.10,2013-04-20 15:43:00,
2013-04-20 09:58:00,43.5,30.0,31.55,North,5,10.0,20.0,60,0.00,,,0.00,190,weatherlink.com 1.10,2013-04-20 15:58:00,
2013-04-20 10:13:00,-999.0,-99.9,31.55,North,-999,-999.0,-999.0,-999,0.00,,,0.00,,weatherlink.com 1.10,2013-04-20 16:13:00,
2013-04-20 10:28:00,44.5,30.0,31.55,North,9,13.0,13.0,57,0.00,,,0.00,207,weatherlink.com 1.10,2013-04-20 16:28:00,
2013-04-20 10:43:00,44.5,29.0,31.56,NW,304,8.0,14.0,56,0.00,,,0.00,420,weatherlink.com 1.10,2013-04-20 16:43:00,
2013-04-20 10:58:00,45.4,30.0,31.56,NNW,343,7.0,13.0,56,0.00,,,0.00,285,weatherlink.com 1.10,2013-04-20 16:58:00,
2013-04-20 11:13:00,45.3,31.0,31.56,NNW,327,6.0,18.0,57,0.00,,,0.00,325,weatherlink.com 1.10,2013-04-20 17:13:00,
2013-04-20 11:29:00,45.6,30.0,31.56,NW,321,13.0,21.0,54,0.00,,,0.00,380,weatherlink.com 1.10,2013-04-20 17:29:00,
2013-04-20 11:44:00,45.8,29.0,31.56,NW,320,10.0,18.0,53,0.00,,,0.00,257,weatherlink.com 1.10,2013-04-20 17:44:00,
2013-04-20 11:59:00,45.7,30.0,31.56,NNW,338,9.0,16.0,54,0.00,,,0.00,241,weatherlink.com 1.10,2013-04-20 17:59:00,
2013-04-20 12:14:00,45.2,29.0,31.56,NW,325,14.0,20.0,54,0.00,,,0.00,221,weatherlink.com 1.10,2013-04-20 18:14:00,
2013-04-20 12:29:00,45.2,30.0,31.57,NW,323,14.0,21.0,55,0.00,,,0.00,209,weatherlink.com 1.10,2013-04-20 18:29:00,
2013-04-20 12:44:00,45.6,30.0,31.57,WNW,296,22.0,22.0,55,0.00,,,0.00,248,weatherlink.com 1.10,2013-04-20 18:44:00,
2013-04-20 12:59:00,47.0,30.0,31.57,NW,311,17.0,24.0,53,0.00,,,0.00,838,weatherlink.com 1.10,2013-04-20 18:59:00,
2013-04-20 13:14:00,46.5,30.0,31.56,WNW,302,16.0,27.0,52,0.00,,,0.00,417,weatherlink.com 1.10,2013-04-20 19:14:00,
2013-04-20 13:29:00,46.5,29.0,31.56,NNW,331,9.0,26.0,51,0.00,,,0.00,251,weatherlink.com 1.10,2013-04-20 19:29:00,
2013-04-20 13:44:00,-999.0,-99.9,31.55,North,-999,-999.0,-999.0,-999,0.00,,,0.00,,weatherlink.com 1.10,2013-04-20 19:44:00,
2013-04-20 13:59:00,-999.0,-99.9,31.54,North,-999,-999.0,-999.0,-999,0.00,,,0.00,,weatherlink.com 1.10,2013-04-20 19:59:00,
2013-04-20 14:14:00,-999.0,-99.9,31.55,North,-999,-999.0,-999.0,-999,0.00,,,0.00,,weatherlink.com 1.10,2013-04-20 20:14:00,
2013-04-20 14:29:00,-999.0,-99.9,31.54,North,-999,-999.0,-999.0,-999,0.00,,,0.00,,weatherlink.com 1.10,2013-04-20 20:29:00,
2013-04-20 14:44:00,-999.0,-99.9,31.53,North,-999,-999.0,-999.0,-999,0.00,,,0.00,,weatherlink.com 1.10,2013-04-20 20:44:00,
2013-04-20 14:59:00,-999.0,-99.9,31.53,North,-999,-999.0,-999.0,-999,0.00,,,0.00,,weatherlink.com 1.10,2013-04-20 20:59:00,
2013-04-20 15:14:00,-999.0,-99.9,31.53,North,-999,-999.0,-999.0,-999,0.00,,,0.00,,weatherlink.com 1.10,2013-04-20 21:14:00,
2013-04-20 15:29:00,-999.0,-99.9,31.51,North,-999,-999.0,-999.0,-999,0.00,,,0.00,,weatherlink.com 1.10,2013-04-20 21:29:00,
2013-04-20 15:44:00,-999.0,-99.9,31.53,North,-999,-999.0,-999.0,-999,0.00,,,0.00,,weatherlink.com 1.10,2013-04-20 21:44:00,
2013-04-20 15:59:00,-999.0,-99.9,31.52,North,-999,-999.0,-999.0,-999,0.00,,,0.00,,weatherlink.com 1.10,2013-04-20 21:59:00,
2013-04-20 16:14:00,-999.0,-99.9,31.53,North,-999,-999.0,-999.0,-999,0.00,,,0.00,,weatherlink.com 1.10,2013-04-20 22:14:00,
2013-04-20 16:29:00,-999.0,-99.9,31.54,North,-999,-999.0,-999.0,-999,0.00,,,0.00,,weatherlink.com 1.10,2013-04-20 22:29:00,
2013-04-20 16:45:00,-999.0,-99.9,31.53,North,-999,-999.0,-999.0,-999,0.00,,,0.00,,weatherlink.com 1.10,2013-04-20 22:45:00,
2013-04-20 17:00:00,-999.0,-99.9,31.54,North,-999,-999.0,-999.0,-999,0.00,,,0.00,,weatherlink.com 1.10,2013-04-20 23:00:00,
2013-04-20 17:15:00,-999.0,-99.9,31.54,North,-999,-999.0,-999.0,-999,0.00,,,0.00,,weatherlink.com 1.10,2013-04-20 23:15:00,
2013-04-20 17:30:00,46.9,31.0,31.55,NNW,337,19.0,25.0,55,0.00,,,0.00,707,weatherlink.com 1.10,2013-04-20 23:30:00,
2013-04-20 17:45:00,47.8,32.0,31.55,NW,324,5.0,15.0,54,0.00,,,0.00,506,weatherlink.com 1.10,2013-04-20 23:45:00,
2013-04-20 18:00:00,47.9,30.0,31.56,NW,311,10.0,14.0,51,0.00,,,0.00,302,weatherlink.com 1.10,2013-04-21 00:00:00,
2013-04-20 18:15:00,47.9,30.0,31.57,NNW,344,13.0,18.0,51,0.00,,,0.00,608,weatherlink.com 1.10,2013-04-21 00:15:00,
2013-04-20 18:30:00,46.0,32.0,31.56,NNW,332,11.0,17.0,58,0.00,,,0.00,515,weatherlink.com 1.10,2013-04-21 00:30:00,
2013-04-20 18:45:00,43.2,31.0,31.57,North,350,5.0,11.0,63,0.00,,,0.00,236,weatherlink.com 1.10,2013-04-21 00:45:00,
2013-04-20 19:00:00,43.0,31.0,31.57,NNW,339,5.0,8.0,64,0.00,,,0.00,204,weatherlink.com 1.10,2013-04-21 01:00:00,
2013-04-20 19:15:00,42.9,31.0,31.59,NW,319,12.0,14.0,63,0.00,,,0.00,135,weatherlink.com 1.10,2013-04-21 01:15:00,
2013-04-20 19:30:00,43.6,30.0,31.59,West,266,6.0,10.0,60,0.00,,,0.00,123,weatherlink.com 1.10,2013-04-21 01:30:00,
2013-04-20 19:45:00,43.7,29.0,31.59,NW,309,0.0,11.0,56,0.00,,,0.00,104,weatherlink.com 1.10,2013-04-21 01:45:00,
2013-04-20 20:00:00,43.4,28.0,31.59,NW,304,3.0,4.0,55,0.00,,,0.00,46,weatherlink.com 1.10,2013-04-21 02:00:00,
2013-04-20 20:15:00,42.9,28.0,31.60,West,276,2.0,13.0,56,0.00,,,0.00,30,weatherlink.com 1.10,2013-04-21 02:15:00,
2013-04-20 20:30:00,42.8,27.0,31.60,West,277,7.0,11.0,55,0.00,,,0.00,11,weatherlink.com 1.10,2013-04-21 02:30:00,
2013-04-20 20:45:00,43.1,26.0,31.61,SW,232,7.0,11.0,51,0.00,,,0.00,0,weatherlink.com 1.10,2013-04-21 02:45:00,
2013-04-20 21:00:00,42.7,27.0,31.61,SSW,206,7.0,10.0,54,0.00,,,0.00,0,weatherlink.com 1.10,2013-04-21 03:00:00,
2013-04-20 21:15:00,42.6,27.0,31.62,South,184,8.0,9.0,54,0.00,,,0.00,0,weatherlink.com 1.10,2013-04-21 03:15:00,
2013-04-20 21:30:00,42.5,28.0,31.63,SW,223,3.0,5.0,56,0.00,,,0.00,0,weatherlink.com 1.10,2013-04-21 03:30:00,
2013-04-20 21:45:00,41.6,28.0,31.63,South,185,2.0,6.0,60,0.00,,,0.00,0,weatherlink.com 1.10,2013-04-21 03:45:00,
2013-04-20 22:00:00,40.6,30.0,31.63,South,191,9.0,11.0,65,0.00,,,0.00,0,weatherlink.com 1.10,2013-04-21 04:00:00,
2013-04-20 22:15:00,40.3,30.0,31.64,South,171,10.0,13.0,67,0.00,,,0.00,0,weatherlink.com 1.10,2013-04-21 04:15:00,
2013-04-20 22:30:00,40.4,30.0,31.64,SSE,157,15.0,17.0,67,0.00,,,0.00,0,weatherlink.com 1.10,2013-04-21 04:30:00,
2013-04-20 22:45:00,40.4,31.0,31.64,South,180,10.0,14.0,68,0.00,,,0.00,0,weatherlink.com 1.10,2013-04-21 04:45:00,
2013-04-20 23:00:00,40.4,30.0,31.63,South,173,12.0,13.0,66,0.00,,,0.00,0,weatherlink.com 1.10,2013-04-21 05:00:00,
2013-04-20 23:15:00,40.7,30.0,31.63,SSE,165,11.0,13.0,65,0.00,,,0.00,0,weatherlink.com 1.10,2013-04-21 05:15:00,
2013-04-20 23:30:00,40.5,30.0,31.63,SSE,168,9.0,15.0,66,0.00,,,0.00,0,weatherlink.com 1.10,2013-04-21 05:30:00,
2013-04-20 23:45:00,40.2,30.0,31.63,SSE,162,10.0,15.0,67,0.00,,,0.00,0,weatherlink.com 1.10,2013-04-21 05:45:00,